AirNav   Air Wisconsin pilot careers
 
 988 users online  

5D2 Northwood Municipal Airport
Northwood, Iowa, USA

GOING TO NORTHWOOD?


FAA INFORMATION EFFECTIVE 26 APRIL 2018

Location

FAA Identifier: 5D2
Lat/Long: 43-26-55.6000N / 093-12-06.0000W
43-26.926667N / 093-12.100000W
43.4487778 / -93.2016667
(estimated)
Elevation: 1226 ft. / 373.7 m (surveyed)
Variation: 03E (1985)
From city: 1 mile E of NORTHWOOD, IA
Time zone: UTC -5 (UTC -6 during Standard Time)
Zip code: 50459

Airport Operations

Airport use: Open to the public
Activation date: 12/1961
Control tower: no
ARTCC: MINNEAPOLIS CENTER
FSS: FORT DODGE FLIGHT SERVICE STATION
NOTAMs facility: FOD (NOTAM-D service available)
Attendance: UNATNDD
Wind indicator: lighted
Segmented circle: no
Lights: SS-SR

Airport Communications

CTAF: 122.9
WX AWOS-3 at AEL (16 nm NW): 109.8 (507-377-1583)
WX AWOS-3 at AUM (17 nm NE): 119.025 (507-433-6667)
WX ASOS at MCW (18 nm S): 120.300 (641-357-8490)

Nearby radio navigation aids

VOR radial/distance  VOR name  Freq  Var
JAYr235/14.5AUSTIN VOR/DME108.2003E
AELr151/15.8ALBERT LEA VOR/DME109.8001E
MCWr009/22.0MASON CITY VOR/DME114.9006E
RSTr228/33.0ROCHESTER VOR/DME112.0005E

 
NDB name  Hdg/Dist  Freq  Var  ID
FOREST CITY052/22.335903EFXY ..-. -..- -.--

Airport Services

Parking: hangars and tiedowns

Runway Information

Runway 17/35

Dimensions: 3300 x 100 ft. / 1006 x 30 m
Surface: turf, in fair condition
Runway edge lights: low intensity
Runway edge markings: RYS 17& 35 THLDS & EDGES MKD WITH YELLOW CONES.
RUNWAY 17  RUNWAY 35
Latitude: 43-27.198338N43-26.655313N
Longitude: 093-12.112337W093-12.086910W
Elevation: 1225.0 ft.1226.0 ft.
Traffic pattern: leftleft
Runway heading: 175 magnetic, 178 true355 magnetic, 358 true
Markings: NSTDNSTD
Obstructions: none32 ft. trees, 659 ft. from runway, 115 ft. right of centerline, 20:1 slope to clear

Airport Ownership and Management from official FAA records

Ownership: Publicly-owned
Owner: CITY OF NORTHWOOD
CENTRAL AVE.
NORTHWOOD, IA 50459
Phone 641-324-1075
Manager: DR MIKE DIERENFELD
CENTRAL AVE
NORTHWOOD, IA 50459
Phone 641-324-1084

Airport Operational Statistics

Aircraft based on the field: 7
Single engine airplanes: 6
Ultralights: 1
    
Aircraft operations: avg 34/week *
60% transient general aviation
40% local general aviation
* for 12-month period ending 13 August 2015

Additional Remarks

CROP DUSTING & SKYDIVING PLANES ON & INVOF ARPT.
RY 17/35 +18 FT BIT RD 100 FT E & PARALLEL CNTRLN.

Instrument Procedures

There are no published instrument procedures at 5D2.

Some nearby airports with instrument procedures:

KAEL - Albert Lea Municipal Airport (16 nm NW)
KAUM - Austin Municipal Airport (17 nm NE)
KMCW - Mason City Municipal Airport (18 nm S)
KFXY - Forest City Municipal Airport (22 nm SW)
KCCY - Northeast Iowa Regional Airport (34 nm SE)
 
Loc | Ops | Rwys | IFR | FBO | Links
Com | Nav | Svcs | Stats | Notes

AirNav Hotels Sweepstakes
 
Area around 5D2 (Northwood Municipal Airport)
 
Road maps at: MapQuest Bing Google
 
Aerial photo
WARNING: Photo may not be current or correct
Aerial photo of 5D2 (Northwood Municipal Airport)
Photo by Ed Wells
Photo taken 29-Mar-2008

Do you have a better or more recent aerial photo of Northwood Municipal Airport that you would like to share? If so, please send us your photo.

 
Sectional chart

 
Airport distance calculator
Flying to Northwood Municipal Airport? Find the distance to fly.

From to 5D2

Sunrise and sunset
Times for 24-May-2018
 Local
(UTC-5)
 Zulu
(UTC)
Morning civil twilight05:0710:07
Sunrise05:4110:41
Sunset20:3801:38
Evening civil twilight21:1202:12

Current date and time
Zulu (UTC)  24-May-2018 12:26:15
Local (UTC-5)  24-May-2018 07:26:15
 
METAR
KAEL 
15nm NW 
241216Z AUTO 16005KT 7SM CLR 19/16 A3009 RMK AO2
KAUM 
18nm NE 
241215Z AUTO 17005KT 10SM CLR 19/16 A3010 RMK AO2
KMCW 
19nm S 
241153Z AUTO 17009KT 7SM CLR 19/17 A3010 RMK AO2 SLP182 70030 T01890172 10194 20178 50001
KFXY 
22nm SW 
241215Z AUTO 16007KT 10SM CLR 20/18 A3008 RMK AO2
TAF
KMCW 
19nm S 
241130Z 2412/2512 17007KT P6SM SKC FM241600 18011G17KT P6SM SCT050 SCT240 FM250400 19009KT P6SM VCTS BKN050 OVC100CB FM250800 19009KT P6SM BKN100
NOTAMs
Click for the latest NOTAMs
NOTAMs are issued by the DoD/FAA and will open in a separate window not controlled by AirNav.

 

 
 

Would you like to see your business listed on this page?

 If your business provides an interesting product or service to pilots, flight crews, aircraft, or users of the Northwood Municipal Airport, you should consider listing it here.  To start the listing process, click on the button below
 
Add a business
 

Other Pages about Northwood Municipal Airport

Page from the Iowa Airport Directory
 
Update a link
 
Copyright © AirNav, LLC. All rights reserved. Privacy Policy  Contact